Date String (YYYY-MM-DD hh:mm:ss) UTC,Instrument flags,absolute air pressure of the measurement (hPa),sample flow rate (lpm),inlet stack bypass flow (lpm),air temperature of the measurement (°C),ambient temperature measured by the external sensor (°C),aerosol sample conditioner tube jacket temperature (°C),OPC LED temperature (°C),internal box temperature (°C),relative humidity of the measurement (%),span deviation,mass concentration of particles derived from Lorenz-Mie calculation of OPC scattering (μg/m³),mass concentration of particles derived from Lorenz-Mie calculation of OPC scattering (μg/m³),mass concentration of particles derived from Lorenz-Mie calculation of OPC scattering (μg/m³)
DateTimeUTC,F1_M11,P_M11,Q1_M11,Q2_M11,T1_M11,T2_M11,T3_M11,T4_M11,T5_M11,U1_M11,ZSPAN_M11,X2_M11,X0_M11,X1_M11
2023-06-24 03:00:00,SystemResetWarning,0825.1,5.01,000.00,030.5,024.1,000.0,038.8,031.4,10.3,0000.0,0004.07,0018.18,0003.07
2023-06-24 03:01:00,SystemResetWarning,0825.1,5.01,000.00,030.4,024.1,000.0,038.8,031.1,10.6,0000.0,0004.04,0017.51,0003.09
2023-06-24 03:02:00,SystemResetWarning,0825.1,5.01,000.00,030.2,024.6,000.0,038.7,030.9,10.9,0000.0,0004.00,0017.27,0003.10
2023-06-24 03:03:00,SystemResetWarning,0825.1,4.99,000.00,030.1,025.2,000.0,038.7,030.8,10.6,0000.0,0003.99,0016.77,0003.11
2023-06-24 03:04:00,SystemResetWarning,0825.0,5.00,000.00,030.0,025.7,000.0,038.7,030.9,10.2,0000.0,0003.97,0016.49,0003.12
2023-06-24 03:05:00,SystemResetWarning,0825.0,5.01,000.00,030.0,026.2,000.0,038.7,031.0,9.7,0000.0,0003.98,0015.10,0003.13
2023-06-24 03:06:00,SystemResetWarning,0825.1,5.00,000.00,030.0,026.6,000.0,038.6,031.0,9.9,0000.0,0004.02,0013.00,0003.14
2023-06-24 03:07:00,SystemResetWarning,0825.1,4.99,000.00,030.0,027.0,000.0,038.6,031.0,9.4,0000.0,0004.02,0013.62,0003.15
2023-06-24 03:08:00,SystemResetWarning,0825.1,5.00,000.00,030.0,027.3,000.0,038.6,031.1,9.1,0000.0,0004.04,0013.48,0003.16
2023-06-24 03:09:00,SystemResetWarning,0825.0,5.00,000.00,030.0,027.5,000.0,038.6,031.2,9.3,0000.0,0004.10,0013.28,0003.17
2023-06-24 03:10:00,SystemResetWarning,0825.0,5.00,000.00,030.0,027.7,000.0,038.6,031.2,9.0,0000.0,0004.07,0012.76,0003.17
2023-06-24 03:11:00,SystemResetWarning,0824.9,5.01,000.00,030.0,027.9,000.0,038.6,031.2,8.8,0000.0,0004.09,0012.99,0003.17
2023-06-24 03:12:00,SystemResetWarning,0824.9,5.01,000.00,030.0,028.0,000.0,038.6,031.3,8.3,0000.0,0004.12,0012.96,0003.18
2023-06-24 03:13:00,SystemResetWarning,0824.9,5.00,000.00,030.1,028.1,000.0,038.6,031.4,8.4,0000.0,0004.16,0012.73,0003.19
2023-06-24 03:14:00,SystemResetWarning,0824.9,4.99,000.00,030.1,028.2,000.0,038.6,031.4,8.2,0000.0,0004.17,0013.81,0003.21
2023-06-24 03:15:00,SystemResetWarning,0824.9,4.99,000.00,030.1,028.3,000.0,038.6,031.4,8.3,0000.0,0004.22,0014.52,0003.22
2023-06-24 03:16:00,SystemResetWarning,0825.0,5.00,000.00,030.1,028.4,000.0,038.6,031.4,8.4,0000.0,0004.35,0016.20,0003.24
2023-06-24 03:17:00,SystemResetWarning,0825.0,5.00,000.00,030.1,028.4,000.0,038.6,031.4,8.5,0000.0,0004.39,0016.87,0003.27
2023-06-24 03:18:00,SystemResetWarning,0825.0,5.00,000.00,030.2,028.1,000.0,038.6,031.5,8.4,0000.0,0004.50,0015.84,0003.30
2023-06-24 03:19:00,SystemResetWarning,0824.9,5.00,000.00,030.1,026.1,000.0,038.5,031.4,8.4,0000.0,0004.57,0016.77,0003.33
2023-06-24 03:20:00,SystemResetWarning,0824.9,5.01,000.00,030.1,025.0,000.0,038.5,031.3,8.2,0000.0,0004.56,0017.98,0003.34
2023-06-24 03:21:00,SystemResetWarning,0824.9,5.01,000.00,030.0,025.0,000.0,038.4,030.9,8.0,0000.0,0004.57,0018.26,0003.36
2023-06-24 03:22:00,SystemResetWarning,0824.9,5.00,000.00,029.9,025.4,000.0,038.4,030.8,8.3,0000.0,0004.61,0018.77,0003.40
2023-06-24 03:23:00,SystemResetWarning,0825.0,4.99,000.00,029.8,025.9,000.0,038.4,030.9,8.3,0000.0,0004.66,0019.39,0003.43
2023-06-24 03:24:00,SystemResetWarning,0824.9,5.00,000.00,029.8,026.3,000.0,038.4,030.9,8.6,0000.0,0004.72,0019.76,0003.46
2023-06-24 03:25:00,SystemResetWarning,0824.9,5.01,000.00,029.8,026.7,000.0,038.4,031.0,8.5,0000.0,0004.79,0020.10,0003.49
2023-06-24 03:26:00,SystemResetWarning,0824.9,5.00,000.00,029.8,027.0,000.0,038.4,031.1,8.2,0000.0,0004.92,0020.31,0003.52
2023-06-24 03:27:00,SystemResetWarning,0825.0,5.00,000.00,029.8,027.3,000.0,038.4,031.1,8.4,0000.0,0004.87,0019.36,0003.53
2023-06-24 03:28:00,SystemResetWarning,0825.0,5.00,000.00,029.8,027.5,000.0,038.4,031.1,8.6,0000.0,0004.81,0019.01,0003.52
2023-06-24 03:29:00,SystemResetWarning,0825.0,5.00,000.00,029.8,027.7,000.0,038.4,031.2,8.1,0000.0,0004.78,0019.12,0003.53
2023-06-24 03:30:00,SystemResetWarning,0824.9,5.00,000.00,029.8,027.8,000.0,038.4,031.2,7.8,0000.0,0004.79,0018.85,0003.54
2023-06-24 03:31:00,SystemResetWarning,0824.9,4.99,000.00,029.8,028.0,000.0,038.4,031.3,7.7,0000.0,0004.84,0017.36,0003.55
2023-06-24 03:32:00,SystemResetWarning,0825.0,5.00,000.00,029.9,028.1,000.0,038.4,031.3,7.7,0000.0,0004.88,0017.37,0003.57
2023-06-24 03:33:00,SystemResetWarning,0825.0,5.00,000.00,029.9,028.2,000.0,038.4,031.3,8.0,0000.0,0004.88,0016.15,0003.58
2023-06-24 03:34:00,SystemResetWarning,0825.1,5.00,000.00,029.9,028.2,000.0,038.4,031.3,8.1,0000.0,0004.84,0016.12,0003.58
2023-06-24 03:35:00,SystemResetWarning,0825.0,5.00,000.00,029.9,028.3,000.0,038.4,031.4,8.1,0000.0,0004.85,0016.45,0003.57
2023-06-24 03:36:00,SystemResetWarning,0825.0,5.00,000.00,030.0,028.4,000.0,038.4,031.4,7.9,0000.0,0004.85,0017.65,0003.57
2023-06-24 03:37:00,SystemResetWarning,0825.0,4.99,000.00,030.0,028.4,000.0,038.4,031.4,8.0,0000.0,0004.78,0016.48,0003.56
2023-06-24 03:38:00,SystemResetWarning,0825.0,5.00,000.00,030.0,028.5,000.0,038.5,031.4,7.7,0000.0,0004.79,0016.40,0003.57
2023-06-24 03:39:00,SystemResetWarning,0825.1,4.99,000.00,030.0,028.5,000.0,038.5,031.5,7.9,0000.0,0004.82,0015.67,0003.59
2023-06-24 03:40:00,SystemResetWarning,0825.1,5.00,000.00,030.0,028.5,000.0,038.5,031.5,7.8,0000.0,0004.81,0015.60,0003.59
2023-06-24 03:41:00,SystemResetWarning,0825.2,5.00,000.00,030.1,026.9,000.0,038.4,031.5,7.9,0000.1,0004.79,0015.57,0003.59
2023-06-24 03:42:00,SystemResetWarning,0825.2,5.00,000.00,030.0,025.2,000.0,038.4,031.4,7.8,0001.1,0004.77,0015.75,0003.60
2023-06-24 03:43:00,SystemResetWarning,0825.2,5.00,000.00,030.0,024.9,000.0,038.3,031.2,7.7,0000.7,0004.86,0017.47,0003.62
2023-06-24 03:44:00,SystemResetWarning,0825.2,5.01,000.00,029.8,025.2,000.0,038.3,030.9,7.6,0000.0,0004.93,0018.32,0003.62
2023-06-24 03:45:00,SystemResetWarning,0825.3,5.01,000.00,029.8,025.7,000.0,038.3,030.9,7.7,0000.0,0004.96,0018.40,0003.62
2023-06-24 03:46:00,SystemResetWarning,0825.4,5.00,000.00,029.7,026.1,000.0,038.3,030.9,7.3,0000.0,0004.92,0018.21,0003.64
2023-06-24 03:47:00,SystemResetWarning,0825.3,5.01,000.00,029.7,026.5,000.0,038.3,031.0,7.6,0000.0,0004.92,0019.43,0003.65
2023-06-24 03:48:00,SystemResetWarning,0825.3,4.99,000.00,029.7,026.9,000.0,038.3,031.0,7.9,0000.0,0004.96,0019.93,0003.67
2023-06-24 03:49:00,SystemResetWarning,0825.3,5.00,000.00,029.7,027.2,000.0,038.3,031.1,7.9,0000.0,0004.96,0020.15,0003.68
2023-06-24 03:50:00,SystemResetWarning,0825.4,5.00,000.00,029.7,027.4,000.0,038.3,031.1,7.9,0000.0,0004.99,0020.19,0003.70
2023-06-24 03:51:00,SystemResetWarning,0825.3,5.00,000.00,029.7,027.6,000.0,038.3,031.1,8.2,0000.0,0004.98,0020.28,0003.71
2023-06-24 03:52:00,SystemResetWarning,0825.4,5.00,000.00,029.7,027.8,000.0,038.3,031.2,8.1,0000.9,0004.96,0019.52,0003.73
2023-06-24 03:53:00,SystemResetWarning,0825.3,5.00,000.00,029.8,027.9,000.0,038.3,031.2,8.2,0000.0,0004.94,0019.96,0003.73
2023-06-24 03:54:00,SystemResetWarning,0825.4,5.00,000.00,029.8,028.0,000.0,038.3,031.2,7.5,0000.0,0004.85,0018.25,0003.74
2023-06-24 03:55:00,SystemResetWarning,0825.5,5.00,000.00,029.8,028.1,000.0,038.3,031.3,7.5,0000.0,0004.75,0017.12,0003.74
2023-06-24 03:56:00,SystemResetWarning,0825.5,4.99,000.00,029.8,028.2,000.0,038.3,031.3,8.1,0000.0,0004.73,0016.48,0003.75
2023-06-24 03:57:00,SystemResetWarning,0825.6,5.00,000.00,029.8,028.3,000.0,038.3,031.3,7.9,0000.0,0004.76,0016.01,0003.75
2023-06-24 03:58:00,SystemResetWarning,0825.6,5.00,000.00,029.9,028.3,000.0,038.4,031.4,8.2,0000.0,0004.75,0014.76,0003.75
2023-06-24 03:59:00,SystemResetWarning,0825.6,5.00,000.00,029.9,028.4,000.0,038.4,031.4,8.4,0000.0,0004.72,0013.42,0003.76
